Vertical_Velocity
3 -3 -2 -2 0 3 8 11 16 11 6 -2 -2 -1 -1 -6 -2 -2 -0 -1 -3 -6 -0 0 -4 -0 -6 -4 -7 -1 -2 -8 -8 -8 -12 -8 -4 -0 -2 -8 -7 -1 -1
4 -1 0 -1 2 9 1 10 4 7 -0 -2 -1 0 -2 -4 -1 0 -2 0 -3 -5 -2 -2 -4 3 -5 -5 -2 -6 -5 -10 -8 -10 -8 -6 -8 -2 -3 -3 -7 -7 -7
-3 -1 0 -3 8 9 20 6 -2 2 -2 -1 -2 0 -2 0 2 0 -0 -2 -0 -5 -3 -2 -2 -4 -5 -1 -4 -3 -4 -5 -7 -10 -5 -7 -8 -4 -6 -4 -3 -2 -5
-3 5 17 17 19 18 4 3 2 4 2 -1 -2 -3 -1 1 1 -2 -1 1 -1 -2 -3 -1 -3 2 -1 2 -3 -3 -5 -1 -1 -5 -4 -4 -7 -3 -2 -5 3 -9 -2
-8 -7 -6 -1 4 3 -2 2 4 -0 0 3 1 0 3 3 -2 -0 -1 -3 -2 1 -1 -0 -5 3 1 2 -2 -7 -4 -1 -0 -7 -2 -4 -6 -1 -5 0 -4 -5 4
-3 -4 3 -8 1 9 12 17 8 9 3 1 -2 2 -2 1 3 -1 -0 2 0 -3 1 -3 -2 -1 -2 -4 -2 -6 -3 -2 -1 -7 -1 -7 -1 -5 -3 -4 -6 -6 4
3 7 7 -3 11 9 1 3 18 12 3 -3 0 1 8 5 4 -3 -4 1 3 -2 1 0 -0 -2 -0 -4 1 -1 -3 -3 -5 -6 -0 -7 -3 1 -2 -4 -2 -10 -3
18 13 2 3 6 2 8 9 13 11 2 4 7 9 9 3 2 1 -2 -3 -3 -2 -2 1 2 -1 0 -4 1 1 1 1 3 -0 -5 -4 -4 -2 -5 -6 -4 -2 5
-3 -6 -7 -0 1 8 10 10 21 18 8 0 2 4 2 5 3 6 -2 -2 0 -1 -3 -4 6 1 -2 -1 0 -2 0 0 2 2 -4 -5 -5 -3 -6 -7 -4 -6 3
-10 -9 12 15 17 7 14 10 10 9 5 -2 3 4 1 3 -1 7 -4 0 1 -1 -2 3 -2 1 -0 -1 -1 -1 0 -1 3 3 3 2 -5 -4 -4 -10 -8 -5 -5
9 13 12 6 11 3 7 12 8 3 1 1 6 5 -0 -1 -2 4 1 1 2 -0 2 2 -2 0 -2 -2 -2 -2 -3 1 -1 -1 -1 -2 0 -0 0 -3 -8 -8 -3
17 10 12 7 13 9 9 -2 3 3 4 -1 0 1 -5 -1 3 3 0 2 -1 -2 2 2 1 1 -0 -0 0 -0 0 -3 -1 1 -0 -1 -0 1 -1 -2 -4 -5 -10
9 4 3 1 -2 7 3 -1 3 3 5 6 -3 -5 0 1 2 1 -1 1 2 -2 -1 1 2 -0 1 1 -0 -2 -3 -1 -1 -3 -1 -2 -1 2 -2 1 -1 -2 -1
5 6 3 -7 -11 2 -2 2 8 5 5 -4 2 2 -3 2 0 1 -0 1 2 -3 -2 1 0 -0 0 -1 -1 0 -0 -3 -3 -2 -2 -0 0 -0 -0 -4 3 -0 1
-1 0 0 4 2 2 5 8 -2 -2 -1 1 3 -2 4 4 -1 2 0 -3 1 0 -1 -0 -2 -2 -2 -2 -1 -1 -2 -3 -1 -2 -2 -2 -0 -0 -2 -4 -3 -0 -2
4 2 -2 0 4 4 0 -5 -2 -0 -0 -0 -1 -0 -1 2 0 -2 2 1 -1 5 4 1 1 1 0 -0 -0 1 -1 -2 -2 -2 -2 -3 -1 1 2 -1 -4 -3 2
-2 1 3 4 -3 -3 -2 -0 -0 -3 -0 -3 0 1 1 2 -2 -1 -0 -1 2 0 -0 -2 -1 -2 -1 -1 -1 -1 0 -2 -2 -2 -2 -1 -2 -0 -1 -0 -1 -1 2
-1 1 -1 0 -2 0 0 -1 -1 1 0 -0 1 0 -2 -3 -3 -1 -1 -1 -2 -3 -1 -2 -2 -3 -2 -0 -1 -1 -0 -2 -1 -2 -2 -2 -2 0 0 -1 -3 0 1
2 -1 1 -1 -1 -1 0 1 0 -0 0 -0 -1 0 -0 0 1 -0 1 0 -0 -2 -1 -2 -3 -3 -1 -0 -1 -1 -3 -1 -2 -2 -2 -2 -2 -1 0 -3 -0 -1 0
-0 -1 0 0 -0 -0 0 1 1 -0 -1 -1 -0 -0 -3 -4 -0 0 1 -0 -2 -2 -2 -2 -2 -2 -0 -1 0 -0 -1 -3 -2 -2 -3 -3 -2 -4 0 0 -0 3 -2
1 -0 -0 1 2 1 0 0 1 -1 -0 0 -1 -2 -1 -1 -0 -1 -4 -3 -2 -2 -2 -2 -2 -1 -1 -1 0 1 -2 -3 -2 -1 -2 -2 -1 -1 -3 -2 2 0 1
-0 1 2 2 1 0 1 -0 -0 0 -1 -2 -2 -1 -1 -1 -2 -2 -2 -2 -2 -1 -2 -1 -1 -2 -1 -1 1 1 -1 -1 -1 -0 -2 -1 -1 -2 -1 -1 0 -0 -1
2 2 2 1 0 -0 -0 -0 -1 -1 -2 -2 -3 -3 -2 -3 -2 -2 -2 -2 -1 -1 -1 -0 0 -0 -2 -3 -3 -1 1 -0 -1 0 1 0 -1 -1 -1 -1 1 -1 -1
1 1 1 0 -1 -0 0 -0 -2 -2 -2 -2 -4 -2 -3 -2 -2 -1 -1 -1 -1 -0 0 0 0 1 1 -2 -3 -3 -2 -2 -1 -1 -1 0 -1 -1 -1 -2 0 -1 -0
1 1 -0 -0 0 0 -1 -2 -2 -2 -3 -5 -3 -2 -1 -1 -1 -1 -0 -1 -1 -1 -0 -0 -0 -0 0 -2 -3 -2 -2 -2 -2 -1 -1 -0 -1 -1 -1 -1 -0 -2 -1
1 0 0 1 -1 -2 -2 -4 -3 -4 -6 -2 -1 -0 -0 0 0 0 -1 -1 -0 -1 -1 -1 -1 -0 -0 -1 -2 -1 -2 -2 -2 -3 -1 -1 -1 -2 -1 -1 -1 0 -1
Height
5658 5657 5656 5654 5654 5654 5651 5649 5647 5647 5643 5639 5637 5635 5633 5631 5627 5624 5620 5616 5610 5604 5599 5595 5590 5584 5580 5574 5568 5562 5557 5553 5549 5546 5540 5535 5530 5524 5520 5516 5514 5511 5506
5644 5643 5642 5642 5643 5641 5641 5637 5635 5632 5629 5626 5624 5622 5620 5616 5612 5608 5605 5602 5597 5591 5585 5580 5575 5568 5563 5558 5553 5548 5542 5537 5532 5529 5523 5517 5512 5506 5500 5496 5492 5489 5485
5628 5628 5628 5629 5629 5628 5625 5621 5620 5618 5616 5613 5611 5608 5605 5602 5597 5595 5592 5588 5583 5576 5571 5566 5558 5554 5547 5541 5537 5533 5527 5521 5514 5509 5504 5497 5491 5485 5479 5472 5466 5461 5457
5612 5613 5614 5615 5613 5613 5610 5607 5606 5604 5602 5600 5597 5595 5591 5586 5584 5582 5578 5574 5569 5563 5558 5552 5544 5540 5532 5527 5522 5516 5511 5504 5497 5491 5484 5478 5471 5464 5456 5449 5444 5436 5433
5598 5599 5602 5602 5601 5601 5598 5594 5591 5590 5588 5586 5584 5580 5576 5573 5570 5566 5563 5559 5553 5549 5544 5537 5531 5526 5518 5514 5508 5501 5494 5487 5479 5473 5465 5459 5451 5442 5434 5427 5422 5417 5411
5583 5585 5585 5587 5587 5586 5584 5581 5575 5574 5573 5571 5568 5565 5563 5560 5555 5552 5550 5546 5539 5534 5528 5521 5516 5510 5503 5498 5492 5484 5476 5469 5461 5454 5446 5438 5430 5421 5413 5406 5400 5395 5393
5567 5567 5569 5569 5570 5570 5569 5567 5564 5560 5558 5557 5555 5552 5550 5548 5543 5539 5536 5531 5525 5520 5512 5507 5501 5494 5487 5481 5473 5465 5457 5449 5441 5434 5426 5417 5409 5400 5393 5387 5378 5372 5366
5551 5552 5555 5555 5556 5556 5555 5553 5551 5547 5545 5544 5542 5541 5539 5537 5532 5526 5522 5517 5511 5506 5500 5494 5485 5477 5472 5465 5457 5449 5441 5433 5423 5415 5406 5397 5388 5380 5371 5365 5357 5352 5346
5537 5537 5538 5539 5541 5541 5541 5540 5537 5534 5533 5532 5532 5531 5528 5524 5520 5513 5507 5501 5495 5491 5485 5478 5470 5462 5456 5448 5441 5433 5425 5417 5408 5398 5387 5377 5369 5360 5350 5345 5336 5330 5326
5520 5521 5524 5525 5524 5526 5526 5523 5522 5520 5520 5521 5520 5518 5515 5511 5507 5499 5491 5486 5482 5476 5469 5460 5455 5448 5439 5430 5423 5417 5409 5401 5393 5384 5374 5362 5352 5342 5332 5323 5316 5309 5303
5507 5507 5506 5508 5508 5509 5508 5508 5507 5509 5509 5509 5506 5505 5501 5496 5490 5483 5478 5472 5466 5460 5452 5445 5440 5431 5421 5413 5406 5399 5391 5384 5376 5368 5358 5348 5338 5328 5317 5307 5297 5289 5284
5491 5491 5492 5494 5495 5496 5497 5496 5497 5497 5497 5496 5494 5490 5486 5480 5475 5469 5465 5459 5451 5447 5437 5431 5423 5414 5405 5397 5389 5381 5374 5366 5358 5351 5342 5333 5323 5314 5303 5292 5283 5273 5263
5480 5482 5482 5483 5486 5486 5487 5487 5487 5487 5486 5485 5481 5477 5471 5466 5462 5455 5451 5446 5439 5431 5423 5416 5407 5398 5389 5381 5372 5364 5356 5349 5341 5334 5325 5317 5308 5299 5288 5279 5269 5260 5250
5471 5472 5473 5476 5478 5478 5478 5479 5478 5477 5475 5472 5467 5462 5458 5454 5449 5444 5439 5433 5425 5415 5408 5400 5391 5381 5373 5364 5356 5347 5339 5332 5324 5316 5309 5300 5292 5283 5273 5264 5256 5247 5240
5463 5464 5466 5467 5468 5469 5469 5468 5468 5466 5463 5459 5455 5450 5445 5442 5437 5432 5425 5418 5411 5401 5391 5382 5373 5364 5356 5348 5339 5331 5324 5316 5309 5301 5293 5286 5277 5268 5258 5248 5239 5232 5224
5455 5456 5459 5460 5460 5460 5459 5459 5457 5454 5450 5446 5443 5439 5436 5432 5426 5419 5412 5403 5395 5385 5375 5366 5357 5349 5341 5334 5326 5319 5311 5303 5296 5287 5278 5270 5262 5253 5244 5234 5225 5218 5211
5449 5450 5450 5450 5451 5450 5449 5447 5445 5442 5439 5436 5433 5429 5425 5419 5412 5404 5395 5386 5377 5368 5358 5350 5343 5335 5328 5320 5314 5306 5299 5290 5282 5273 5263 5255 5247 5239 5230 5221 5213 5206 5200
5441 5441 5441 5441 5440 5439 5438 5437 5435 5432 5430 5427 5423 5417 5412 5405 5397 5388 5379 5369 5360 5352 5344 5337 5330 5323 5316 5309 5302 5294 5285 5277 5268 5258 5249 5240 5232 5225 5217 5209 5202 5196 5191
5432 5432 5431 5431 5430 5430 5429 5427 5425 5422 5419 5415 5411 5405 5398 5390 5381 5372 5362 5354 5345 5338 5331 5325 5319 5312 5305 5297 5289 5281 5272 5263 5254 5245 5236 5228 5220 5213 5205 5198 5192 5186 5182
5423 5422 5422 5422 5422 5422 5420 5418 5415 5412 5408 5404 5397 5390 5382 5374 5365 5355 5347 5340 5333 5327 5320 5314 5307 5300 5292 5284 5277 5268 5259 5250 5241 5232 5223 5216 5209 5201 5194 5188 5183 5179 5175
5416 5416 5416 5416 5415 5413 5411 5409 5405 5401 5396 5390 5383 5376 5367 5358 5348 5340 5333 5328 5322 5316 5310 5303 5295 5287 5279 5272 5264 5255 5246 5237 5229 5220 5212 5205 5197 5190 5184 5179 5175 5171 5169
5410 5409 5409 5407 5406 5404 5401 5398 5394 5389 5383 5377 5370 5362 5352 5343 5335 5328 5322 5316 5311 5305 5298 5290 5282 5274 5267 5259 5251 5243 5234 5226 5217 5209 5201 5193 5187 5181 5176 5171 5167 5164 5162
5403 5402 5401 5399 5397 5395 5391 5387 5383 5377 5371 5364 5356 5347 5338 5329 5323 5317 5311 5305 5299 5293 5285 5278 5270 5262 5254 5246 5239 5231 5223 5215 5207 5199 5191 5184 5177 5172 5167 5163 5159 5157 5156
5396 5394 5392 5391 5389 5386 5382 5377 5371 5365 5358 5350 5341 5332 5324 5317 5312 5306 5300 5294 5287 5280 5273 5265 5258 5250 5241 5233 5225 5218 5210 5203 5196 5188 5181 5175 5169 5164 5159 5155 5152 5150 5150
5388 5387 5385 5382 5379 5376 5371 5366 5359 5353 5345 5336 5326 5318 5312 5306 5301 5295 5289 5282 5275 5267 5260 5253 5245 5237 5229 5220 5213 5206 5198 5191 5184 5178 5171 5165 5160 5155 5151 5148 5145 5144 5144
5381 5379 5377 5373 5370 5365 5360 5354 5347 5340 5331 5321 5313 5307 5301 5296 5290 5283 5276 5269 5262 5255 5247 5240 5232 5224 5216 5208 5201 5194 5187 5180 5173 5167 5161 5155 5150 5146 5143 5140 5138 5137 5138